Location: Squirrel Cove
(50.1074°N, 124.9139°W)
Time: 12:30:55
(UTC-07:00)

PCSat - Pass Details

Date: 25 May 2022
Orbit: 784 x 795 km, 67.1° (Epoch: 26 June)

Event Time Altitude Azimuth Distance (km) Brightness Sun altitude
Rises 22:37:54 0° 304° (NW) 3,301 14.4 -10.6°
Reaches altitude 10° 22:41:48 10° 332° (NNW) 2,373 13.6 -11.0°
Maximum altitude 22:44:17 13° 359° (N) 2,163 12.7 -11.2°
Drops below altitude 10° 22:46:47 10° 27° (NNE) 2,374 12.4 -11.4°
Sets 22:50:41 0° 54° (NE) 3,304 12.8 -11.8°
